This demonstration page uses our WeatherBlox Daily Observations layout. Learn more.

Left ArrowRight Arrow

39.29038, -76.61219

Hourly Observations for August 19, 2022

Temp ( °F °C ) Dew Point ( °F °C ) Humidity (%) Winds ( mph kmh ) Pressure ( in mb ) Visibility ( mi km ) Precip ( " mm )
12:54 am 00:54 undefined 75 23.9 58 14.4 55 55 undefined N/A 30.01 1016 N/A 0.00 0.00
1:54 am 01:54 undefined 74 23.3 60 15.6 62 62 undefined N/A 30.02 1017 N/A 0.00 0.00
2:54 am 02:54 undefined 74 23.3 59 15 60 60 undefined N/A 30.03 1017 N/A 0.00 0.00
3:54 am 03:54 undefined 73 22.8 60 15.6 64 64 undefined N/A 30.03 1017 N/A 0.00 0.00
4:54 am 04:54 undefined 71 21.7 61 16.1 70 70 undefined N/A 30.03 1017 N/A 0.00 0.00
5:54 am 05:54 undefined 71 21.7 61 16.1 70 70 undefined N/A 30.04 1017 N/A 0.00 0.00
6:54 am 06:54 undefined 71 21.7 61 16.1 70 70 undefined N/A 30.06 1018 N/A 0.00 0.00
7:54 am 07:54 undefined 75 23.9 63 17.2 66 66 undefined N/A 30.08 1019 N/A 0.00 0.00
8:54 am 08:54 undefined 79 26.1 64 17.8 60 60 undefined N/A 30.08 1019 N/A 0.00 0.00
12:54 pm 12:54 undefined 88 31.1 66 18.9 48 48 undefined N/A 30.08 1019 N/A 0.00 0.00
1:54 pm 13:54 undefined 87 30.6 66 18.9 50 50 undefined N/A 30.07 1018 N/A 0.00 0.00
2:54 pm 14:54 undefined 89 31.7 66 18.9 47 47 undefined N/A 30.06 1018 N/A 0.00 0.00
3:54 pm 15:54 undefined 88 31.1 67 19.4 50 50 undefined N/A 30.05 1018 N/A 0.00 0.00
4:54 pm 16:54 undefined 87 30.6 67 19.4 51 51 undefined N/A 30.05 1018 N/A 0.00 0.00
5:54 pm 17:54 undefined 87 30.6 67 19.4 51 51 undefined N/A 30.05 1018 N/A 0.00 0.00
6:54 pm 18:54 undefined 85 29.4 68 20 57 57 undefined N/A 30.06 1018 N/A 0.00 0.00
7:54 pm 19:54 undefined 83 28.3 68 20 61 61 undefined N/A 30.07 1018 N/A 0.00 0.00
8:54 pm 20:54 undefined 83 28.3 68 20 61 61 undefined N/A 30.09 1019 N/A 0.00 0.00
9:54 pm 21:54 undefined 82 27.8 68 20 63 63 undefined N/A 30.10 1019 N/A 0.00 0.00
10:54 pm 22:54 undefined 81 27.2 66 18.9 61 61 undefined N/A 30.11 1020 N/A 0.00 0.00
11:54 pm 23:54 undefined 80 26.7 65 18.3 60 60 undefined N/A 30.11 1020 N/A 0.00 0.00

Powered by AerisWeather